Time,TemperatureF,DewpointF,PressureIn,WindDirection,WindDirectionDegrees,WindSpeedMPH,WindSpeedGustMPH,Humidity,HourlyPrecipIn,Conditions,Clouds,dailyrainin,SoftwareType,DateUTC
2013-04-07 00:34:00,31.0,27.0,30.30,West,263,0.0,1.0,84,0.00,,,0.00,weatherlink.com 1.10,2013-04-07 04:34:00,
2013-04-07 01:19:00,30.2,27.0,30.30,West,274,0.0,1.0,86,0.00,,,0.00,weatherlink.com 1.10,2013-04-07 05:19:00,
2013-04-07 01:34:00,30.5,27.0,30.29,West,274,0.0,1.0,87,0.00,,,0.00,weatherlink.com 1.10,2013-04-07 05:34:00,
2013-04-07 01:49:00,29.9,27.0,30.29,West,266,0.0,1.0,87,0.00,,,0.00,weatherlink.com 1.10,2013-04-07 05:49:00,
2013-04-07 04:03:00,28.7,26.0,30.26,West,267,0.0,0.0,90,0.00,,,0.00,weatherlink.com 1.10,2013-04-07 08:03:00,
2013-04-07 04:39:00,28.7,26.0,30.27,WNW,297,0.0,1.0,91,0.00,,,0.00,weatherlink.com 1.10,2013-04-07 08:39:00,
2013-04-07 04:49:00,28.4,26.0,30.27,WNW,297,0.0,0.0,91,0.00,,,0.00,weatherlink.com 1.10,2013-04-07 08:49:00,
2013-04-07 05:04:00,28.3,26.0,30.27,WNW,293,0.0,1.0,91,0.00,,,0.00,weatherlink.com 1.10,2013-04-07 09:04:00,
2013-04-07 05:19:00,28.0,26.0,30.28,WNW,293,0.0,1.0,91,0.00,,,0.00,weatherlink.com 1.10,2013-04-07 09:19:00,
2013-04-07 05:34:00,27.9,26.0,30.28,WNW,293,0.0,0.0,91,0.00,,,0.00,weatherlink.com 1.10,2013-04-07 09:34:00,
2013-04-07 05:49:00,28.2,26.0,30.28,WNW,293,0.0,1.0,92,0.00,,,0.00,weatherlink.com 1.10,2013-04-07 09:49:00,
2013-04-07 06:04:00,28.3,26.0,30.29,WNW,300,0.0,0.0,91,0.00,,,0.00,weatherlink.com 1.10,2013-04-07 10:04:00,
2013-04-07 06:19:00,28.8,27.0,30.29,WNW,296,0.0,1.0,92,0.00,,,0.00,weatherlink.com 1.10,2013-04-07 10:19:00,
2013-04-07 06:34:00,29.2,27.0,30.29,WNW,297,0.0,1.0,92,0.00,,,0.00,weatherlink.com 1.10,2013-04-07 10:34:00,
2013-04-07 06:49:00,30.0,28.0,30.29,WNW,296,0.0,0.0,92,0.00,,,0.00,weatherlink.com 1.10,2013-04-07 10:49:00,
2013-04-07 07:04:00,32.1,30.0,30.29,WNW,297,0.0,0.0,92,0.00,,,0.00,weatherlink.com 1.10,2013-04-07 11:04:00,
2013-04-07 07:19:00,33.3,31.0,30.30,WNW,296,0.0,0.0,90,0.00,,,0.00,weatherlink.com 1.10,2013-04-07 11:19:00,
2013-04-07 07:34:00,34.5,32.0,30.30,WNW,297,0.0,0.0,90,0.00,,,0.00,weatherlink.com 1.10,2013-04-07 11:34:00,
2013-04-07 07:49:00,36.7,34.0,30.30,WNW,297,0.0,0.0,90,0.00,,,0.00,weatherlink.com 1.10,2013-04-07 11:49:00,
2013-04-07 08:05:00,40.2,37.0,30.30,South,171,0.0,3.0,89,0.00,,,0.00,weatherlink.com 1.10,2013-04-07 12:05:00,
2013-04-07 08:20:00,42.1,38.0,30.30,South,172,0.0,2.0,86,0.00,,,0.00,weatherlink.com 1.10,2013-04-07 12:20:00,
2013-04-07 08:35:00,43.1,38.0,30.30,SSE,157,1.0,2.0,83,0.00,,,0.00,weatherlink.com 1.10,2013-04-07 12:35:00,
2013-04-07 08:50:00,43.8,39.0,30.30,SSE,155,1.0,3.0,83,0.00,,,0.00,weatherlink.com 1.10,2013-04-07 12:50:00,
2013-04-07 09:05:00,43.7,39.0,30.29,South,187,0.0,4.0,82,0.00,,,0.00,weatherlink.com 1.10,2013-04-07 13:05:00,
2013-04-07 09:20:00,44.9,39.0,30.29,South,190,1.0,3.0,80,0.00,,,0.00,weatherlink.com 1.10,2013-04-07 13:20:00,
2013-04-07 09:50:00,45.4,39.0,30.28,SE,124,1.0,3.0,78,0.00,,,0.00,weatherlink.com 1.10,2013-04-07 13:50:00,
2013-04-07 10:05:00,45.6,39.0,30.28,SE,135,1.0,3.0,79,0.00,,,0.00,weatherlink.com 1.10,2013-04-07 14:05:00,
2013-04-07 10:20:00,46.0,39.0,30.28,SE,136,0.0,2.0,76,0.00,,,0.00,weatherlink.com 1.10,2013-04-07 14:20:00,
2013-04-07 10:35:00,46.6,39.0,30.28,SE,137,0.0,3.0,74,0.00,,,0.00,weatherlink.com 1.10,2013-04-07 14:35:00,
2013-04-07 10:50:00,48.1,38.0,30.27,SE,124,2.0,4.0,67,0.00,,,0.00,weatherlink.com 1.10,2013-04-07 14:50:00,
2013-04-07 11:05:00,48.4,38.0,30.27,SSE,151,1.0,4.0,67,0.00,,,0.00,weatherlink.com 1.10,2013-04-07 15:05:00,
2013-04-07 11:20:00,48.0,37.0,30.26,SSE,160,3.0,5.0,66,0.00,,,0.00,weatherlink.com 1.10,2013-04-07 15:20:00,
2013-04-07 11:35:00,46.8,36.0,30.25,SE,137,1.0,4.0,66,0.00,,,0.00,weatherlink.com 1.10,2013-04-07 15:35:00,
2013-04-07 11:50:00,48.3,37.0,30.25,SSE,157,2.0,5.0,64,0.00,,,0.00,weatherlink.com 1.10,2013-04-07 15:50:00,
2013-04-07 12:05:00,49.2,37.0,30.24,SE,135,1.0,5.0,63,0.00,,,0.00,weatherlink.com 1.10,2013-04-07 16:05:00,
2013-04-07 12:35:00,49.7,38.0,30.23,SE,136,2.0,5.0,64,0.00,,,0.00,weatherlink.com 1.10,2013-04-07 16:35:00,
2013-04-07 12:50:00,50.1,38.0,30.21,SSE,162,3.0,5.0,64,0.00,,,0.00,weatherlink.com 1.10,2013-04-07 16:50:00,
2013-04-07 13:05:00,49.8,39.0,30.21,SE,145,2.0,8.0,66,0.00,,,0.00,weatherlink.com 1.10,2013-04-07 17:05:00,
2013-04-07 13:20:00,49.5,39.0,30.20,South,169,4.0,6.0,67,0.00,,,0.00,weatherlink.com 1.10,2013-04-07 17:20:00,
2013-04-07 13:35:00,49.7,40.0,30.19,SE,144,3.0,5.0,69,0.00,,,0.00,weatherlink.com 1.10,2013-04-07 17:35:00,
2013-04-07 13:51:00,50.4,41.0,30.18,SSE,160,3.0,5.0,70,0.00,,,0.00,weatherlink.com 1.10,2013-04-07 17:51:00,
2013-04-07 14:06:00,50.3,40.0,30.17,ESE,123,1.0,5.0,69,0.00,,,0.00,weatherlink.com 1.10,2013-04-07 18:06:00,
2013-04-07 14:21:00,50.9,41.0,30.17,SE,134,3.0,6.0,68,0.00,,,0.00,weatherlink.com 1.10,2013-04-07 18:21:00,
2013-04-07 14:36:00,51.4,41.0,30.16,SE,139,0.0,6.0,67,0.00,,,0.00,weatherlink.com 1.10,2013-04-07 18:36:00,
2013-04-07 15:36:00,51.6,42.0,30.13,South,179,1.0,6.0,69,0.00,,,0.00,weatherlink.com 1.10,2013-04-07 19:36:00,
2013-04-07 15:51:00,51.9,42.0,30.12,SSE,153,3.0,6.0,68,0.00,,,0.00,weatherlink.com 1.10,2013-04-07 19:51:00,
2013-04-07 16:06:00,52.0,42.0,30.11,South,178,3.0,7.0,69,0.00,,,0.00,weatherlink.com 1.10,2013-04-07 20:06:00,
2013-04-07 16:21:00,51.4,42.0,30.11,SE,135,4.0,6.0,69,0.00,,,0.00,weatherlink.com 1.10,2013-04-07 20:21:00,
2013-04-07 16:36:00,50.8,41.0,30.10,SSE,167,1.0,11.0,70,0.00,,,0.00,weatherlink.com 1.10,2013-04-07 20:36:00,
2013-04-07 16:51:00,50.0,41.0,30.09,WSW,258,0.0,6.0,71,0.00,,,0.00,weatherlink.com 1.10,2013-04-07 20:51:00,
2013-04-07 17:21:00,49.7,41.0,30.08,South,172,3.0,6.0,73,0.00,,,0.00,weatherlink.com 1.10,2013-04-07 21:21:00,
2013-04-07 17:36:00,49.3,42.0,30.07,SE,139,1.0,5.0,75,0.00,,,0.00,weatherlink.com 1.10,2013-04-07 21:36:00,
2013-04-07 17:51:00,48.1,41.0,30.07,SSE,151,1.0,5.0,77,0.00,,,0.00,weatherlink.com 1.10,2013-04-07 21:51:00,
2013-04-07 18:06:00,47.1,41.0,30.07,SSE,166,1.0,4.0,79,0.00,,,0.00,weatherlink.com 1.10,2013-04-07 22:06:00,
2013-04-07 18:21:00,46.6,41.0,30.08,SSE,163,1.0,5.0,80,0.00,,,0.00,weatherlink.com 1.10,2013-04-07 22:21:00,
2013-04-07 18:36:00,46.4,41.0,30.06,SE,146,1.0,5.0,81,0.00,,,0.00,weatherlink.com 1.10,2013-04-07 22:36:00,
2013-04-07 18:51:00,45.7,41.0,30.05,SE,146,2.0,5.0,83,0.00,,,0.00,weatherlink.com 1.10,2013-04-07 22:51:00,
2013-04-07 19:06:00,45.4,41.0,30.06,South,176,1.0,5.0,83,0.00,,,0.00,weatherlink.com 1.10,2013-04-07 23:06:00,
2013-04-07 19:21:00,45.2,41.0,30.06,South,181,0.0,5.0,84,0.00,,,0.00,weatherlink.com 1.10,2013-04-07 23:21:00,
2013-04-07 19:36:00,44.7,40.0,30.06,SSE,147,1.0,3.0,84,0.00,,,0.00,weatherlink.com 1.10,2013-04-07 23:36:00,
2013-04-07 19:51:00,44.5,40.0,30.06,South,172,1.0,2.0,85,0.00,,,0.00,weatherlink.com 1.10,2013-04-07 23:51:00,
2013-04-07 20:06:00,44.8,41.0,30.06,SSE,159,0.0,2.0,85,0.00,,,0.00,weatherlink.com 1.10,2013-04-08 00:06:00,
2013-04-07 20:36:00,45.0,41.0,30.05,SSE,148,2.0,4.0,86,0.00,,,0.00,weatherlink.com 1.10,2013-04-08 00:36:00,
2013-04-07 21:21:00,45.3,41.0,30.05,SSE,151,0.0,4.0,86,0.00,,,0.00,weatherlink.com 1.10,2013-04-08 01:21:00,
2013-04-07 21:36:00,45.7,42.0,30.05,SE,143,2.0,5.0,87,0.00,,,0.00,weatherlink.com 1.10,2013-04-08 01:36:00,
2013-04-07 21:51:00,46.3,42.0,30.04,SE,143,0.0,6.0,86,0.00,,,0.00,weatherlink.com 1.10,2013-04-08 01:51:00,
2013-04-07 22:06:00,46.3,42.0,30.04,WSW,243,2.0,8.0,86,0.00,,,0.00,weatherlink.com 1.10,2013-04-08 02:06:00,
2013-04-07 22:21:00,46.0,42.0,30.03,SW,221,1.0,6.0,87,0.00,,,0.00,weatherlink.com 1.10,2013-04-08 02:21:00,
2013-04-07 22:36:00,45.7,42.0,30.02,West,273,4.0,6.0,88,0.00,,,0.00,weatherlink.com 1.10,2013-04-08 02:36:00,
2013-04-07 22:51:00,45.5,43.0,30.03,South,181,0.0,8.0,89,0.00,,,0.00,weatherlink.com 1.10,2013-04-08 02:51:00,
2013-04-07 23:06:00,45.4,43.0,30.03,West,269,1.0,4.0,90,0.00,,,0.00,weatherlink.com 1.10,2013-04-08 03:06:00,
2013-04-07 23:21:00,45.9,43.0,30.03,South,188,0.0,5.0,90,0.00,,,0.00,weatherlink.com 1.10,2013-04-08 03:21:00,
2013-04-07 23:36:00,46.0,43.0,30.03,West,262,1.0,4.0,90,0.00,,,0.00,weatherlink.com 1.10,2013-04-08 03:36:00,
2013-04-07 23:52:00,45.7,43.0,30.03,West,276,1.0,4.0,90,0.00,,,0.00,weatherlink.com 1.10,2013-04-08 03:52:00,